Regional Weather Roundup
Issued by NWS

Home | Current Version | Previous Version | Graphics & Text | Print | Product List | Glossary On
Versions: 1 2 3 4 5 6 7 8 9 10 11 12 13 14 15 16 17 18 19 20 21 22 23 24 25 26 27 28 29 30 31 32 33 34 35 36 37 38 39 40 41 42 43 44 45 46 47 48 49 50
000
ASUS43 KMPX 041910
RWRMN
WEATHER ROUNDUP FOR MINNESOTA
NATIONAL WEATHER SERVICE TWIN CITIES/CHANHASSEN MN
200 PM CDT TUE AUG 04 2015


NOTE: "FAIR" INDICATES FEW OR NO CLOUDS BELOW 12,000 FEET WITH NO
SIGNIFICANT WEATHER AND/OR OBSTRUCTIONS TO VISIBILITY. N/A MEANS
CURRENT SKY AND/OR WEATHER CONDITIONS ARE NOT AVAILABLE.

MNZ060>063-068>070-042000-
   Twin Cities Metro

CITY           SKY/WX    TMP DP  RH WIND       PRES   REMARKS
TWIN CITIES    MOSUNNY   80  51  36 W12       29.99F
ST PAUL        MOSUNNY   80  51  36 W9        29.99S
CRYSTAL        MOSUNNY   81  52  36 W9G18     29.98S
BLAINE         PTSUNNY   81  54  39 W7        29.99S
LAKEVILLE      SUNNY     75  54  46 W9        30.00F
EDEN PRAIRIE   SUNNY     81  52  36 NW9G17    29.98F
SOUTH ST PAUL  SUNNY     79  48  33 W9G17     29.99S
LAKE ELMO      FAIR      77  54  44 W9        30.00F
$$
MNZ001>005-007-008-013>017-022>024-027-028-042000-
   Northwest Minnesota

CITY           SKY/WX    TMP DP  RH WIND       PRES   REMARKS
BEMIDJI        MOSUNNY   73  52  47 NW10      30.01R
HALLOCK        SUNNY     70  52  52 NE3       30.03S
ROSEAU         SUNNY     70  55  60 CALM      30.03S
WARROAD        SUNNY     64  54  68 E8        30.05R
THIEF RVR FALL SUNNY     72  52  49 CALM      30.03S
CROOKSTON      SUNNY     73  54  49 NE5       30.02S
FOSSTON        MOSUNNY   73  52  46 CALM      30.03R
DETROIT LAKES  SUNNY     75  50  41 N8G17     30.02S
MOORHEAD       SUNNY     75  54  46 N5        30.00S
PARK RAPIDS    MOSUNNY   76  50  40 NW13G18   30.00S
MAHNOMEN       FAIR      72  55  54 N10       30.02R
$$
MNZ006-009>011-018-025>026-042000-
   North Central Minnesota

CITY           SKY/WX    TMP DP  RH WIND       PRES   REMARKS
BAUDETTE       MOSUNNY   66  51  58 N8        30.03S
FLAG ISLAND    MOSUNNY   63  48  59 N3        30.03S
INTL FALLS     MOSUNNY   64  48  56 NE8       30.03S
WASKISH        MOSUNNY   72  54  53 NW7       30.02R
BIG FORK       SUNNY     72  52  49 NW3       30.01S
LONGVILLE      MOSUNNY   72  54  53 NW7       30.01S
GRAND RAPIDS   PTSUNNY   70  48  46 N8G17     30.01R
CRANE LAKE     CLOUDY    59  48  67 NW6       30.04R
ORR            MOSUNNY   64  46  52 NW5       29.99S
COOK           MOSUNNY   64  52  63 NW8       30.01F
WALKER         MOCLDY    73  51  47 NW10      30.01R
$$
MNZ012-019>021-037-042000-
   Northeast Minnesota

CITY           SKY/WX    TMP DP  RH WIND       PRES   REMARKS
DULUTH         MOSUNNY   73  50  44 W13G20    29.98S
ELY            CLOUDY    63  48  59 N5        30.01S
HIBBING        CLOUDY    67  49  52 NW9       30.00S
EVELETH        MOSUNNY   64  46  52 NW7       30.01S
DULUTH HARBOR  MOSUNNY   70  54  56 NE3       29.97S
TWO HARBORS    CLOUDY    72  55  56 NW3       29.97R
SILVER BAY     PTSUNNY   70  50  49 CALM      29.96S
GRAND MARAIS     N/A     53  48  83 SW12      29.98R
G MARAIS ARPRT CLOUDY    61  46  59 NW7       30.01R
$$
MNZ029>031-032-039>041-046>048-054>057-064-042000-
   West Central Minnesota

CITY           SKY/WX    TMP DP  RH WIND       PRES   REMARKS
FERGUS FALLS   SUNNY     77  50  38 NW6       29.99S
WHEATON        SUNNY     75  52  43 CALM      30.00F
MORRIS         SUNNY     79  50  36 NE3       29.99S
ALEXANDRIA     SUNNY     78  48  34 NW10      30.02S
ELBOW LAKE     FAIR      76  49  37 NW6       30.00S
WADENA         SUNNY     77  48  36 N9        30.00R
GLENWOOD       SUNNY     79  48  34 W5        30.01F
APPLETON       SUNNY     81  46  30 N3        29.99S
BENSON         SUNNY     79  46  31 W3        30.00R
ORTONVILLE     SUNNY     79  48  34 CALM      29.99S
MADISON        MOSUNNY   79  48  34 SE3       29.99S
WILLMAR        FAIR      79  48  34 CALM      30.01S
$$
MNZ033>034-036-042>043-049>051-058-059-042000-
   Central Minnesota

CITY           SKY/WX    TMP DP  RH WIND       PRES   REMARKS
ST CLOUD       MOSUNNY   79  51  37 W9        29.98F
SAUK CENTRE    FAIR      77  50  38 N9        30.00S
PAYNESVILLE    SUNNY     76  45  32 NW6       30.00F
AITKIN         MOSUNNY   75  54  46 NW7       29.98R
PINE RIVER     MOSUNNY   75  54  46 NW5       30.03S
BRAINERD       MOSUNNY   78  50  37 NW14      29.99S
STAPLES        SUNNY     79  45  29 N12       29.99S
LONG PRAIRIE   FAIR      77  50  38 NW7       30.00F
LITCHFIELD     SUNNY     79  48  34 W6        30.01S
BUFFALO        MOSUNNY   78  50  36 W10       30.00F
MAPLE LAKE     SUNNY     79  55  44 NW7       30.01S
$$
MNZ037-044-045-052-053-042000-
   East Central Minnesota

CITY           SKY/WX    TMP DP  RH WIND       PRES   REMARKS
PRINCETON      SUNNY     81  54  39 W8        29.98F
MORA           MOSUNNY   73  52  46 N8G16     30.00R
CAMBRIDGE      MOSUNNY   81  57  44 W13G18    29.97S
RUSH CITY      PTSUNNY   76  53  45 NW6       29.98S
MOOSE LAKE     MOSUNNY   72  50  46 NW12      29.97S
HINCKLEY       FAIR      73  52  46 NW8       29.98S
CLOQUET        CLOUDY    72  50  46 N9        29.98S
MCGREGOR       MOSUNNY   73  50  43 NW12      29.99S
$$
MNZ071>073-080-081-089-090-097-098-042000-
   Southwest Minnesota

CITY           SKY/WX    TMP DP  RH WIND       PRES   REMARKS
MONTEVIDEO     SUNNY     82  52  34 E6        30.01S
GRANITE FALLS  SUNNY     78  50  38 CALM      30.01S
CANBY          MOSUNNY   78  51  39 E3        30.01S
MARSHALL       MOSUNNY   77  52  41 SW6       30.02R
REDWOOD FALLS  MOSUNNY   80  46  30 VRB3      29.99F
OLIVIA         SUNNY     75  48  38 SW3       30.00S
PIPESTONE      PTSUNNY   75  59  57 SE6       30.01S
WINDOM         PTSUNNY   79  45  29 SE5       30.01F
WORTHINGTON    PTSUNNY   73  57  56 SE9       30.01S
JACKSON        PTSUNNY   77  52  41 SE8       30.02F
TRACY          MOSUNNY   77  54  44 SE7       30.01S
SLAYTON        PTSUNNY   76  55  48 CALM      30.02S
$$
MNZ065>067-074>077-082>085-091>093-042000-
   South Central Minnesota

CITY           SKY/WX    TMP DP  RH WIND       PRES   REMARKS
MANKATO        MOSUNNY   75  48  38 S5        30.01S
NEW ULM        MOSUNNY   79  45  29 CALM      30.00F
ST JAMES       PTSUNNY   79  54  41 SE6       30.02S
FAIRMONT       PTSUNNY   75  46  35 SE7       30.01F
GLENCOE        SUNNY     79  51  37 CALM      30.00S
FARIBAULT      MOSUNNY   77  54  44 SW6       30.02S
OWATONNA       MOSUNNY   75  46  35 CALM      30.02S
WASECA         MOSUNNY   73  50  43 CALM      30.03F
ALBERT LEA     PTSUNNY   75  48  38 SE3       30.02F
$$
MNZ078>079-086>088-094>096-042000-
   Southeast Minnesota

CITY           SKY/WX    TMP DP  RH WIND       PRES   REMARKS
ROCHESTER      MOSUNNY   75  55  49 NW9       30.03F
RED WING       SUNNY     81  48  32 W9        29.98F
STANTON        MOSUNNY   78  50  37 W3        29.99F
DODGE CENTER   MOSUNNY   73  50  43 W3        30.03S
WINONA         MOSUNNY   79  54  41 W6        29.99F
AUSTIN         PTSUNNY   77  48  36 CALM      30.03S
PRESTON        PTSUNNY   73  54  51 NW5       30.04S
$$
ABBREVIATIONS USED IN REMARKS
   TC - TEMPERATURES IN CELSIUS
  WCI - WIND CHILL INDEX
   HX - HEAT INDEX
  VSB - VISIBILITY
$$


USA.gov is the U.S. government's official web portal to all federal, state and local government web resources and services.